GLOBALSTAR M073 [+]

Last updated on July 6, 2021, 3:36 p.m. UTC

1 37193U 10054F   21186.69315796 -.00000098  00000-0  29417-4 0  9992
2 37193  52.0036 166.3436 0000236  17.7458 153.7622 12.62267337495668
UTC
Height (km)
Latitude
Longitude
Inclination
Orbital Period
UTC large
Height (km)
Speed (km/s)
/
Latitude / Longitude
Inclination (degrees)
Orbital Period (minutes)
Azimuth
Elevation
Range (km)
Doppler Factor
iOS Compass Heading
iOS Angle